Date,Time,Wetness (Wet Dry or Ice),Wind Speed (m/s),Temperature (C),Humidity (%),Pressure (mb),Radiation (W/m^2)
2020-06-28,03:40:00,DRY,2.53,15.57,9.7,777.00,1.3
2020-06-28,03:45:00,DRY,1.90,15.20,10.0,777.00,1.2
2020-06-28,03:50:00,DRY,2.37,15.67,10.0,777.00,0.6
2020-06-28,03:55:00,DRY,3.10,15.75,11.0,777.00,1.5
2020-06-28,04:00:00,DRY,3.23,15.67,11.0,777.00,1.6
2020-06-28,04:05:00,DRY,3.25,15.45,11.0,777.00,1.1
2020-06-28,04:10:00,DRY,3.13,15.43,11.3,777.00,2.1
2020-06-28,04:15:00,DRY,2.65,15.55,11.0,777.00,1.3
2020-06-28,04:20:00,DRY,1.87,16.07,9.0,777.00,1.7
2020-06-28,04:25:00,DRY,2.00,15.65,10.5,777.00,1.7
2020-06-28,04:30:00,DRY,1.37,15.07,10.7,777.00,1.3
2020-06-28,04:35:00,DRY,1.10,15.55,10.0,777.00,1.4
2020-06-28,04:40:00,DRY,1.20,15.23,10.3,777.00,1.0
2020-06-28,04:45:00,DRY,0.90,14.45,11.0,777.00,0.7
2020-06-28,04:50:00,DRY,0.87,14.63,11.0,777.00,1.4
2020-06-28,04:55:00,DRY,1.25,14.70,11.0,777.00,1.4
2020-06-28,05:00:00,DRY,1.40,14.07,12.0,777.00,1.1
2020-06-28,05:05:00,DRY,1.25,14.05,11.5,777.00,1.3
2020-06-28,05:10:00,DRY,1.30,14.90,10.0,777.00,1.4
2020-06-28,05:15:00,DRY,0.95,15.25,9.5,777.00,1.2
2020-06-28,05:20:00,DRY,1.73,15.07,10.0,777.00,0.4
2020-06-28,05:25:00,DRY,1.10,15.45,9.0,777.00,1.0
2020-06-28,05:30:00,DRY,1.10,15.47,10.0,777.00,1.0
2020-06-28,05:35:00,DRY,1.20,15.75,9.5,777.50,1.0
2020-06-28,05:40:00,DRY,0.57,15.57,9.0,777.00,1.1
2020-06-28,05:45:00,DRY,0.60,15.90,8.0,777.00,0.9
2020-06-28,05:50:00,DRY,0.57,15.77,8.0,777.33,1.1
2020-06-28,05:55:00,DRY,0.45,15.50,8.5,777.50,2.5
2020-06-28,06:00:00,DRY,0.67,15.43,9.0,777.67,2.7
2020-06-28,06:05:00,DRY,1.10,15.70,9.0,777.00,3.5
2020-06-28,06:10:00,DRY,0.90,15.47,10.0,777.33,5.3
2020-06-28,06:15:00,DRY,0.70,15.55,9.0,778.00,7.5
2020-06-28,06:20:00,DRY,1.50,15.50,9.7,777.67,10.3
2020-06-28,06:25:00,DRY,0.45,15.30,9.0,777.50,31.1
2020-06-28,06:30:00,DRY,0.97,15.80,8.0,778.00,48.6
2020-06-28,06:35:00,DRY,1.25,16.25,8.5,778.00,45.0
2020-06-28,06:40:00,DRY,0.83,16.40,7.7,777.33,51.4
2020-06-28,06:45:00,DRY,0.85,16.80,7.0,778.00,118.2
2020-06-28,06:50:00,DRY,1.23,16.43,8.0,778.00,139.2
2020-06-28,06:55:00,DRY,1.75,17.05,6.5,778.00,157.9
2020-06-28,07:00:00,DRY,0.70,16.47,7.3,778.00,178.3
2020-06-28,07:05:00,DRY,0.25,17.05,4.5,778.00,198.2
2020-06-28,07:10:00,DRY,0.77,18.00,6.3,778.00,220.3
2020-06-28,07:15:00,DRY,1.05,17.30,7.5,777.50,241.2
2020-06-28,07:20:00,DRY,0.53,17.77,6.3,778.00,264.1
2020-06-28,07:25:00,DRY,0.50,18.30,7.5,778.00,286.1
2020-06-28,07:30:00,DRY,1.23,18.13,7.7,778.00,308.9
2020-06-28,07:35:00,DRY,1.55,17.35,9.5,778.00,330.6
2020-06-28,07:40:00,DRY,1.93,16.77,11.7,778.00,352.7
2020-06-28,07:45:00,DRY,2.20,16.55,12.0,778.00,374.8
2020-06-28,07:50:00,DRY,1.70,16.50,12.7,778.00,398.0
2020-06-28,07:55:00,DRY,2.60,16.45,13.0,778.00,419.6
2020-06-28,08:00:00,DRY,2.27,16.60,12.7,778.00,441.6
2020-06-28,08:05:00,DRY,2.60,16.55,14.0,778.00,464.2
2020-06-28,08:10:00,DRY,2.17,16.37,14.7,778.00,486.1
2020-06-28,08:15:00,DRY,2.55,16.60,15.0,778.00,506.5
2020-06-28,08:20:00,DRY,2.37,16.77,14.0,778.00,528.0
2020-06-28,08:25:00,DRY,2.25,16.75,13.5,778.00,548.2
2020-06-28,08:30:00,DRY,2.57,16.90,14.0,778.00,570.7
2020-06-28,08:35:00,DRY,2.75,17.15,13.0,778.00,590.3
2020-06-28,08:40:00,DRY,1.97,16.90,17.3,778.00,612.2
2020-06-28,08:45:00,DRY,1.85,17.00,16.5,778.00,633.5
2020-06-28,08:50:00,DRY,2.43,16.90,18.0,778.00,652.7
2020-06-28,08:55:00,DRY,2.10,16.95,15.5,778.00,673.2
2020-06-28,09:00:00,DRY,2.77,17.07,19.3,778.00,692.2
2020-06-28,09:05:00,DRY,3.40,16.70,17.0,778.00,712.4
2020-06-28,09:10:00,DRY,3.50,16.80,17.3,778.00,731.6
2020-06-28,09:15:00,DRY,2.95,16.95,18.0,778.00,749.5
2020-06-28,09:20:00,DRY,2.80,17.10,17.3,778.00,770.5
2020-06-28,09:25:00,DRY,2.60,17.30,16.5,778.00,789.8
2020-06-28,09:30:00,DRY,2.53,17.30,19.3,778.00,807.0
2020-06-28,09:35:00,DRY,2.75,17.35,18.5,778.00,823.8
2020-06-28,09:40:00,DRY,3.77,17.43,18.3,778.00,842.1
2020-06-28,09:45:00,DRY,3.35,17.20,19.0,778.00,859.2
2020-06-28,09:50:00,DRY,3.10,17.30,20.7,778.00,877.1
2020-06-28,09:55:00,DRY,3.55,17.25,17.5,778.00,893.7
2020-06-28,10:00:00,DRY,3.77,17.30,18.0,778.00,908.7
2020-06-28,10:05:00,DRY,4.85,17.45,19.5,778.00,924.9
2020-06-28,10:10:00,DRY,3.13,17.13,16.7,778.00,940.2
2020-06-28,10:15:00,DRY,3.55,17.25,17.5,778.00,954.0
2020-06-28,10:20:00,DRY,3.77,17.57,19.0,778.00,969.5
2020-06-28,10:25:00,DRY,3.85,17.75,19.0,778.00,985.2
2020-06-28,10:30:00,DRY,3.63,17.90,19.3,778.00,997.7
2020-06-28,10:35:00,DRY,2.80,17.95,19.0,778.00,1012.2
2020-06-28,10:40:00,DRY,2.67,17.93,20.7,778.00,1024.1
2020-06-28,10:45:00,DRY,3.40,17.40,19.5,778.00,1039.2
2020-06-28,10:50:00,DRY,4.37,17.63,21.7,778.00,1051.4
2020-06-28,10:55:00,DRY,4.30,17.60,18.0,778.00,1062.1
2020-06-28,11:00:00,DRY,4.13,17.53,20.7,778.00,1075.5
2020-06-28,11:05:00,DRY,4.60,17.15,24.0,778.00,1085.6
2020-06-28,11:10:00,DRY,3.27,17.67,21.7,778.00,1097.3
2020-06-28,11:15:00,DRY,2.30,17.65,21.0,778.00,1107.4
2020-06-28,11:20:00,DRY,3.53,18.33,23.0,778.00,1116.2
2020-06-28,11:25:00,DRY,2.00,17.65,23.5,778.00,1126.8
2020-06-28,11:30:00,DRY,2.67,17.53,22.0,778.00,1136.6
2020-06-28,11:35:00,DRY,2.85,17.50,26.0,778.00,1143.6
2020-06-28,11:40:00,DRY,3.50,17.57,28.0,778.00,1150.4
2020-06-28,11:45:00,DRY,3.90,17.60,26.0,778.00,1159.8
2020-06-28,11:50:00,DRY,4.30,17.97,24.3,778.00,1166.5
2020-06-28,11:55:00,DRY,2.90,17.80,29.5,778.00,1170.8
2020-06-28,12:00:00,DRY,2.90,18.40,20.7,778.00,1179.7
2020-06-28,12:05:00,DRY,3.00,18.40,28.5,778.00,1184.7
2020-06-28,12:10:00,DRY,3.17,18.13,31.3,778.00,1189.2
2020-06-28,12:15:00,DRY,3.60,18.15,30.0,778.00,1194.7
2020-06-28,12:20:00,DRY,3.00,18.97,28.0,778.00,1199.2
2020-06-28,12:25:00,DRY,4.20,18.75,26.5,778.00,1199.5
2020-06-28,12:30:00,DRY,3.30,19.10,28.7,778.00,1204.5
2020-06-28,12:35:00,DRY,3.25,18.80,25.5,778.00,1208.4
2020-06-28,12:40:00,DRY,2.63,18.40,25.7,778.00,1208.8
2020-06-28,12:45:00,DRY,2.90,18.80,26.0,778.00,1211.2
2020-06-28,12:50:00,DRY,3.80,18.73,31.0,778.00,1210.1
2020-06-28,12:55:00,DRY,3.60,18.20,27.5,778.00,1212.2
2020-06-28,13:00:00,DRY,3.53,18.37,28.7,778.00,1214.7
2020-06-28,13:05:00,DRY,3.40,18.75,32.5,778.00,1214.2
2020-06-28,13:10:00,DRY,2.57,18.80,29.7,778.00,1214.6
2020-06-28,13:15:00,DRY,3.15,18.75,33.5,778.00,1216.7
2020-06-28,13:20:00,DRY,3.10,18.63,30.7,778.00,1215.4
2020-06-28,13:25:00,DRY,2.65,18.05,25.5,778.00,1215.4
2020-06-28,13:30:00,DRY,2.70,18.70,28.0,778.00,1216.5
2020-06-28,13:35:00,DRY,2.30,19.20,30.0,778.00,1217.4
2020-06-28,13:40:00,DRY,2.87,18.73,32.3,778.00,1213.1
2020-06-28,13:45:00,DRY,2.15,19.00,32.0,778.00,1211.8
2020-06-28,13:50:00,DRY,2.77,19.00,30.7,778.00,1209.6
2020-06-28,13:55:00,DRY,2.40,18.60,34.0,778.00,1211.6
2020-06-28,14:00:00,DRY,2.43,19.20,28.7,778.00,1206.0
2020-06-28,14:05:00,DRY,3.10,19.15,32.0,778.00,1204.0
2020-06-28,14:10:00,DRY,3.07,19.13,26.7,778.00,1196.8
2020-06-28,14:15:00,DRY,2.90,19.35,35.0,778.00,1190.4
2020-06-28,14:20:00,DRY,2.53,18.67,31.7,778.00,1185.0
2020-06-28,14:25:00,DRY,2.80,19.20,31.5,778.00,1181.2
2020-06-28,14:30:00,DRY,2.57,19.27,34.7,778.00,1175.9
2020-06-28,14:35:00,DRY,2.90,18.90,34.0,778.00,1169.5
2020-06-28,14:40:00,DRY,2.13,19.47,31.0,778.00,1163.2
2020-06-28,14:45:00,DRY,4.25,18.75,34.5,778.00,1152.7
2020-06-28,14:50:00,DRY,1.93,18.53,32.0,778.00,1147.5
2020-06-28,14:55:00,DRY,3.50,18.50,35.5,778.00,1138.2
2020-06-28,15:00:00,DRY,2.10,18.77,34.0,778.00,1128.5
2020-06-28,15:05:00,DRY,2.60,19.35,33.5,778.00,1117.2
2020-06-28,15:10:00,DRY,2.07,18.47,34.7,778.00,1107.3
2020-06-28,15:15:00,DRY,2.60,18.50,32.0,778.00,1095.6
2020-06-28,15:20:00,DRY,2.30,18.60,34.0,778.00,1085.7
2020-06-28,15:25:00,DRY,3.55,18.80,36.5,778.00,1074.2
2020-06-28,15:30:00,DRY,2.67,18.47,36.3,778.00,1061.6
2020-06-28,15:35:00,DRY,2.60,18.45,40.5,778.00,1048.2
2020-06-28,15:40:00,DRY,2.60,18.00,36.7,778.00,1038.2
2020-06-28,15:45:00,DRY,3.10,18.00,37.0,778.00,1022.8
2020-06-28,15:50:00,DRY,2.20,17.70,35.0,778.00,1009.8
2020-06-28,15:55:00,DRY,2.70,17.65,38.5,778.00,996.7
2020-06-28,16:00:00,DRY,4.70,17.70,35.7,778.00,981.9
2020-06-28,16:05:00,DRY,2.55,18.10,34.5,778.00,967.7
2020-06-28,16:10:00,DRY,3.07,17.87,35.3,778.00,948.3
2020-06-28,16:15:00,DRY,3.15,17.85,34.0,778.00,933.8
2020-06-28,16:20:00,DRY,3.43,17.53,34.0,778.00,919.2
2020-06-28,16:25:00,DRY,2.60,17.85,31.0,778.00,901.7
2020-06-28,16:30:00,DRY,2.80,17.97,28.3,778.00,886.5
2020-06-28,16:35:00,DRY,2.60,17.50,29.5,778.00,869.2
2020-06-28,16:40:00,DRY,3.67,17.07,26.7,778.00,851.4
2020-06-28,16:45:00,DRY,4.05,17.20,33.0,778.00,836.4
2020-06-28,16:50:00,DRY,3.17,17.70,25.7,778.00,815.9
2020-06-28,16:55:00,DRY,4.00,17.40,25.5,778.00,798.8
2020-06-28,17:00:00,DRY,5.07,17.30,24.3,778.00,780.5
2020-06-28,17:05:00,DRY,5.50,17.50,24.5,778.00,762.5
2020-06-28,17:10:00,DRY,2.50,17.33,23.0,778.00,742.4
2020-06-28,17:15:00,DRY,2.75,17.80,24.0,778.00,724.1
2020-06-28,17:20:00,DRY,3.17,17.23,22.0,778.00,704.9
2020-06-28,17:25:00,DRY,3.65,17.00,23.0,778.00,683.1
2020-06-28,17:30:00,DRY,3.30,16.90,25.5,778.00,664.7
2020-06-28,17:35:00,DRY,2.80,16.90,24.5,778.00,644.9
2020-06-28,17:40:00,DRY,3.93,17.10,23.7,778.00,623.1
2020-06-28,17:45:00,DRY,2.30,16.90,20.5,778.00,603.0
2020-06-28,17:50:00,DRY,2.77,17.23,21.7,778.00,581.3
2020-06-28,17:55:00,DRY,1.90,17.10,18.0,778.00,561.2
2020-06-28,18:00:00,DRY,3.77,17.03,23.7,777.67,538.7
2020-06-28,18:05:00,DRY,2.45,16.60,25.0,777.00,517.9
2020-06-28,18:10:00,DRY,3.53,16.43,24.0,778.00,494.9
2020-06-28,18:15:00,DRY,3.90,16.55,22.5,778.00,473.2
2020-06-28,18:20:00,DRY,3.03,16.00,23.3,777.33,450.8
2020-06-28,18:25:00,DRY,4.40,15.90,21.0,777.50,428.9
2020-06-28,18:30:00,DRY,3.43,16.10,23.7,777.00,406.7
2020-06-28,18:35:00,DRY,4.90,15.80,22.5,777.00,384.5
2020-06-28,18:40:00,DRY,3.83,15.73,20.7,778.00,363.1
2020-06-28,18:45:00,DRY,4.60,15.65,23.0,777.00,340.9
2020-06-28,18:50:00,DRY,4.30,15.47,22.3,777.00,318.9
2020-06-28,18:55:00,DRY,3.45,15.35,22.5,777.00,297.5
2020-06-28,19:00:00,DRY,4.30,15.30,25.0,777.33,275.0
2020-06-28,19:05:00,DRY,2.65,15.35,19.5,777.00,254.2
2020-06-28,19:10:00,DRY,2.47,15.33,21.0,777.33,233.4
2020-06-28,19:15:00,DRY,2.90,15.40,20.5,777.50,212.6
2020-06-28,19:20:00,DRY,2.90,15.60,19.7,777.67,192.7
2020-06-28,19:25:00,DRY,3.30,15.40,20.5,777.50,173.1
2020-06-28,19:30:00,DRY,3.83,15.37,19.3,777.67,154.1
2020-06-28,19:35:00,DRY,2.80,15.35,17.0,778.00,131.4
2020-06-28,19:40:00,DRY,4.07,15.00,20.0,777.33,107.1
2020-06-28,19:45:00,DRY,4.25,14.70,21.5,777.50,82.8
2020-06-28,19:50:00,DRY,4.40,14.83,18.7,777.67,61.9
2020-06-28,19:55:00,DRY,3.65,14.75,19.5,778.00,43.9
2020-06-28,20:00:00,DRY,3.93,14.50,20.0,778.00,29.2
2020-06-28,20:05:00,DRY,3.70,14.50,21.0,777.50,18.1
2020-06-28,20:10:00,DRY,3.93,14.20,21.0,778.00,13.0
2020-06-28,20:15:00,DRY,3.80,14.10,20.0,778.00,8.9
2020-06-28,20:20:00,DRY,4.13,14.07,19.0,778.00,5.2
2020-06-28,20:25:00,DRY,5.30,13.80,22.5,778.00,3.0
2020-06-28,20:30:00,DRY,5.20,13.83,19.7,778.00,2.3
2020-06-28,20:35:00,DRY,6.10,13.90,18.0,778.00,1.2
2020-06-28,20:40:00,DRY,6.00,14.00,17.0,778.00,1.4
2020-06-28,20:45:00,DRY,4.95,14.05,16.5,778.00,1.6
2020-06-28,20:50:00,DRY,5.77,14.10,16.7,778.00,1.1
2020-06-28,20:55:00,DRY,5.30,14.10,18.0,778.00,1.5
2020-06-28,21:00:00,DRY,6.00,14.10,16.7,778.00,1.6
2020-06-28,21:05:00,DRY,5.55,14.20,17.5,778.00,1.8
2020-06-28,21:10:00,DRY,6.17,13.90,18.7,778.00,1.3
2020-06-28,21:15:00,DRY,6.50,13.70,21.0,778.00,1.3
2020-06-28,21:20:00,DRY,5.57,13.50,22.7,778.00,1.3
2020-06-28,21:25:00,DRY,6.20,13.60,21.5,778.00,1.3
2020-06-28,21:30:00,DRY,5.47,13.73,19.0,778.00,1.2
2020-06-28,21:35:00,DRY,6.00,13.60,22.5,778.00,1.1
2020-06-28,21:40:00,DRY,5.67,13.23,25.0,778.00,1.3
2020-06-28,21:45:00,DRY,6.85,13.05,27.5,778.00,1.1
2020-06-28,21:50:00,DRY,7.07,13.20,25.3,778.00,1.2
2020-06-28,21:55:00,DRY,6.80,13.35,20.0,778.00,1.3
2020-06-28,22:00:00,DRY,7.40,13.20,23.7,778.00,0.8
2020-06-28,22:05:00,DRY,7.10,13.50,20.0,778.00,1.2
2020-06-28,22:10:00,DRY,7.13,13.53,21.0,778.00,1.1
2020-06-28,22:15:00,DRY,5.50,13.85,17.5,778.00,1.3
2020-06-28,22:20:00,DRY,5.27,13.93,14.7,778.00,1.1
2020-06-28,22:25:00,DRY,5.75,13.80,17.5,778.00,1.9
2020-06-28,22:30:00,DRY,6.80,13.90,17.0,778.00,1.7
2020-06-28,22:35:00,DRY,6.25,13.90,15.0,778.00,1.4
2020-06-28,22:40:00,DRY,6.33,13.63,19.7,778.00,1.1
2020-06-28,22:45:00,DRY,4.55,13.50,21.0,778.00,1.5
2020-06-28,22:50:00,DRY,7.23,13.60,17.7,778.00,1.4
2020-06-28,22:55:00,DRY,6.70,13.30,23.0,778.00,1.2
2020-06-28,23:00:00,DRY,6.67,13.33,21.3,778.00,1.3
2020-06-28,23:05:00,DRY,6.45,13.35,22.0,778.00,1.9
2020-06-28,23:10:00,DRY,5.40,13.60,17.0,778.00,2.0
2020-06-28,23:15:00,DRY,5.60,13.80,16.0,778.00,1.3
2020-06-28,23:20:00,DRY,6.60,13.47,18.7,778.00,1.6
2020-06-28,23:25:00,DRY,5.85,13.55,20.0,778.00,1.2
2020-06-28,23:30:00,DRY,6.00,13.87,14.7,778.00,1.2
2020-06-28,23:35:00,DRY,6.10,13.60,17.0,778.00,1.5
2020-06-28,23:40:00,DRY,6.27,13.70,16.7,778.00,1.2
2020-06-28,23:45:00,DRY,6.55,13.80,14.5,778.00,1.4
2020-06-28,23:50:00,DRY,6.03,13.83,15.3,778.00,1.2
2020-06-28,23:55:00,DRY,6.45,13.55,19.5,778.00,1.4
2020-06-29,00:00:00,DRY,7.20,13.73,20.0,778.00,1.4
2020-06-29,00:05:00,DRY,6.90,13.60,22.5,778.00,1.4
2020-06-29,00:10:00,DRY,6.53,13.40,22.3,778.00,1.3
2020-06-29,00:15:00,DRY,6.75,13.70,20.0,778.00,1.4
2020-06-29,00:20:00,DRY,6.80,13.43,23.0,778.00,1.2
2020-06-29,00:25:00,DRY,7.15,13.40,21.0,778.00,1.5
2020-06-29,00:30:00,DRY,6.70,13.23,27.0,778.00,1.8
2020-06-29,00:35:00,DRY,6.40,13.45,20.5,778.00,1.6
2020-06-29,00:40:00,DRY,6.70,13.60,19.7,778.00,1.0
2020-06-29,00:45:00,DRY,6.30,13.50,21.5,777.50,1.8
2020-06-29,00:50:00,DRY,6.30,13.33,25.0,777.33,1.4
2020-06-29,00:55:00,DRY,5.90,13.35,22.5,777.00,1.4
2020-06-29,01:00:00,DRY,5.87,13.57,20.7,777.67,1.3
2020-06-29,01:05:00,DRY,5.75,13.30,23.5,778.00,0.9
2020-06-29,01:10:00,DRY,6.43,13.77,17.0,777.33,1.6
2020-06-29,01:15:00,DRY,5.55,14.20,17.0,777.50,0.8
2020-06-29,01:20:00,DRY,6.27,14.07,16.0,777.00,1.3
2020-06-29,01:25:00,DRY,5.90,14.40,14.5,777.50,0.8
2020-06-29,01:30:00,DRY,4.63,14.07,19.3,777.00,1.3
2020-06-29,01:35:00,DRY,3.80,13.95,18.5,777.00,0.9
2020-06-29,01:40:00,DRY,4.13,13.97,19.0,777.00,0.8
2020-06-29,01:45:00,DRY,4.45,14.15,18.5,777.00,1.2
2020-06-29,01:50:00,DRY,4.23,14.30,16.7,777.00,1.2
2020-06-29,01:55:00,DRY,4.50,14.15,16.5,777.00,1.2
2020-06-29,02:00:00,DRY,3.30,14.10,17.3,777.00,0.9
2020-06-29,02:05:00,DRY,3.05,13.75,20.0,777.00,1.6
2020-06-29,02:10:00,DRY,4.47,14.43,14.7,777.00,1.4
2020-06-29,02:15:00,DRY,4.15,14.80,14.0,777.00,0.9
2020-06-29,02:20:00,DRY,4.20,14.77,13.0,777.00,1.1
2020-06-29,02:25:00,DRY,4.70,14.70,14.5,777.00,1.1
2020-06-29,02:30:00,DRY,4.43,14.63,14.0,777.00,1.4
2020-06-29,02:35:00,DRY,4.25,14.55,15.0,777.00,1.5
2020-06-29,02:40:00,DRY,4.53,13.77,20.7,777.00,1.2
2020-06-29,02:45:00,DRY,3.75,13.60,23.0,777.00,1.8
2020-06-29,02:50:00,DRY,4.73,13.47,22.7,777.00,2.0
2020-06-29,02:55:00,DRY,4.95,13.85,17.0,777.00,1.5
2020-06-29,03:00:00,DRY,4.53,13.80,19.3,777.00,1.3
2020-06-29,03:05:00,DRY,5.30,13.80,16.0,777.00,1.1
2020-06-29,03:10:00,DRY,4.93,13.83,17.7,777.00,2.0
2020-06-29,03:15:00,DRY,4.20,13.55,21.5,777.00,1.1
2020-06-29,03:20:00,DRY,4.90,13.37,23.7,777.00,1.2
2020-06-29,03:25:00,DRY,4.35,13.50,25.0,777.00,1.2
2020-06-29,03:30:00,DRY,3.57,13.50,23.3,777.00,1.7
2020-06-29,03:35:00,DRY,4.05,13.20,27.5,777.00,1.6
2020-06-29,03:40:00,DRY,5.67,13.30,27.3,777.00,1.2
2020-06-29,03:45:00,DRY,5.15,13.60,22.0,777.00,1.4
2020-06-29,03:50:00,DRY,4.60,13.97,19.0,777.00,1.2
2020-06-29,03:55:00,DRY,5.40,14.10,20.0,777.00,1.4
2020-06-29,04:00:00,DRY,4.50,14.20,17.3,777.00,1.1
2020-06-29,04:05:00,DRY,4.20,13.85,19.5,777.00,0.8
2020-06-29,04:10:00,DRY,5.23,13.77,21.3,777.00,1.2
2020-06-29,04:15:00,DRY,4.50,13.30,24.0,777.00,1.1
2020-06-29,04:20:00,DRY,5.33,13.10,24.3,776.67,1.3
2020-06-29,04:25:00,DRY,4.85,13.00,26.5,777.00,1.8
2020-06-29,04:30:00,DRY,5.63,13.00,27.3,776.00,1.5
2020-06-29,04:35:00,DRY,5.35,12.35,36.0,776.50,1.4
2020-06-29,04:40:00,DRY,5.43,11.90,38.7,776.33,1.3
2020-06-29,04:45:00,DRY,5.20,12.25,35.0,776.50,1.5
2020-06-29,04:50:00,DRY,5.43,12.13,36.3,776.00,1.1
2020-06-29,04:55:00,DRY,5.10,11.95,38.0,776.00,1.2
2020-06-29,05:00:00,DRY,4.80,11.67,40.0,776.00,1.4
2020-06-29,05:05:00,DRY,5.30,12.05,36.0,776.00,1.4
2020-06-29,05:10:00,DRY,5.43,12.33,34.0,776.00,1.2
2020-06-29,05:15:00,DRY,4.70,12.50,31.5,776.00,1.4
2020-06-29,05:20:00,DRY,5.77,12.43,32.0,776.00,0.9
2020-06-29,05:25:00,DRY,5.25,12.40,32.5,776.00,0.8
2020-06-29,05:30:00,DRY,4.87,12.43,33.0,776.00,1.2
2020-06-29,05:35:00,DRY,5.35,12.65,30.5,776.00,1.4
2020-06-29,05:40:00,DRY,4.57,12.53,31.7,776.00,1.4
2020-06-29,05:45:00,DRY,4.30,12.60,31.5,776.00,1.2
2020-06-29,05:50:00,DRY,4.10,12.20,34.0,776.00,1.2
2020-06-29,05:55:00,DRY,4.05,12.00,35.0,776.00,1.8
2020-06-29,06:00:00,DRY,2.73,11.87,37.7,776.00,1.6
2020-06-29,06:05:00,DRY,4.20,11.45,41.0,776.00,2.9
2020-06-29,06:10:00,DRY,5.23,12.07,35.3,776.00,4.5
2020-06-29,06:15:00,DRY,4.75,12.75,31.0,776.00,6.9
2020-06-29,06:20:00,DRY,4.63,12.67,32.0,776.00,10.9
2020-06-29,06:25:00,DRY,4.25,12.55,31.0,776.00,26.1
2020-06-29,06:30:00,DRY,4.70,12.67,31.7,776.00,44.1
2020-06-29,06:35:00,DRY,4.65,12.50,33.5,776.50,43.2
2020-06-29,06:40:00,DRY,4.47,12.77,33.0,776.00,48.4
2020-06-29,06:45:00,DRY,5.55,13.20,31.0,776.00,111.0
2020-06-29,06:50:00,DRY,3.90,13.30,30.0,776.00,133.0
2020-06-29,06:55:00,DRY,3.70,13.35,31.5,776.00,151.7
2020-06-29,07:00:00,DRY,2.17,13.20,32.0,776.00,171.9
2020-06-29,07:05:00,DRY,3.50,13.60,30.5,776.00,192.4
2020-06-29,07:10:00,DRY,1.95,13.55,31.0,776.50,214.8
2020-06-29,07:15:00,DRY,3.90,13.80,30.0,776.50,235.4
2020-06-29,07:20:00,DRY,4.00,13.40,33.7,776.33,258.0
2020-06-29,07:25:00,DRY,2.75,13.45,34.0,776.50,280.6
2020-06-29,07:30:00,DRY,3.60,13.07,37.7,776.00,302.7
2020-06-29,07:35:00,DRY,4.85,13.00,37.5,776.00,324.9
2020-06-29,07:40:00,DRY,3.47,13.33,37.0,776.00,347.1
2020-06-29,07:45:00,DRY,3.80,13.00,38.5,776.00,368.9
2020-06-29,07:50:00,DRY,3.93,13.17,37.3,776.00,391.4
2020-06-29,07:55:00,DRY,3.60,13.05,41.5,776.00,413.6
2020-06-29,08:00:00,DRY,4.70,13.10,40.7,776.33,434.7
2020-06-29,08:05:00,DRY,4.65,13.25,38.0,776.00,456.6
2020-06-29,08:10:00,DRY,4.37,13.17,40.0,776.67,479.2
2020-06-29,08:15:00,DRY,5.10,13.20,42.0,777.00,499.9
2020-06-29,08:20:00,DRY,3.97,13.23,42.0,777.00,522.2
2020-06-29,08:25:00,DRY,4.95,13.10,43.5,777.00,543.6
2020-06-29,08:30:00,DRY,4.17,13.43,41.3,777.00,564.0
2020-06-29,08:35:00,DRY,3.15,13.50,40.0,777.00,586.0
2020-06-29,08:40:00,DRY,4.00,13.80,39.7,777.00,606.8
2020-06-29,08:45:00,DRY,6.25,13.85,38.0,777.00,627.7
2020-06-29,08:50:00,DRY,4.83,14.03,36.3,777.00,648.7
2020-06-29,08:55:00,DRY,5.35,13.95,38.5,777.00,669.0
2020-06-29,09:00:00,DRY,3.00,14.20,37.0,777.00,687.2
2020-06-29,09:05:00,DRY,4.60,13.95,38.0,777.00,705.8
2020-06-29,09:10:00,DRY,3.33,14.37,37.7,777.00,727.0
2020-06-29,09:15:00,DRY,2.95,14.55,35.5,777.00,746.4
2020-06-29,09:20:00,DRY,3.83,14.80,36.0,777.00,766.6
2020-06-29,09:25:00,DRY,4.85,14.80,34.5,777.00,785.0
2020-06-29,09:30:00,DRY,4.37,14.90,35.0,777.00,802.4
2020-06-29,09:35:00,DRY,3.45,14.95,34.5,777.00,819.8
2020-06-29,09:40:00,DRY,6.23,14.93,33.3,777.00,836.1
2020-06-29,09:45:00,DRY,4.75,14.95,33.5,777.00,853.9
2020-06-29,09:50:00,DRY,4.00,14.93,34.0,777.00,872.0
2020-06-29,09:55:00,DRY,4.00,14.90,32.0,777.00,890.0
2020-06-29,10:00:00,DRY,3.67,15.37,32.7,777.00,904.9
2020-06-29,10:05:00,DRY,4.15,15.45,30.0,777.00,921.3
2020-06-29,10:10:00,DRY,4.60,15.63,31.7,777.00,936.4
2020-06-29,10:15:00,DRY,3.70,16.35,31.0,777.00,952.4
2020-06-29,10:20:00,DRY,4.33,15.90,32.7,777.00,966.7
2020-06-29,10:25:00,DRY,3.30,16.25,32.0,777.00,981.9
2020-06-29,10:30:00,DRY,4.10,15.83,30.7,777.00,996.0
2020-06-29,10:35:00,DRY,5.50,15.70,32.0,777.00,1010.1
2020-06-29,10:40:00,DRY,5.70,16.23,31.0,777.00,1023.0
2020-06-29,10:45:00,DRY,6.55,16.15,31.5,777.00,1034.3
2020-06-29,10:50:00,DRY,4.73,16.20,31.7,777.00,1048.9
2020-06-29,10:55:00,DRY,4.55,16.15,28.0,777.00,1062.4
2020-06-29,11:00:00,DRY,3.50,16.53,29.3,777.00,1073.3
2020-06-29,11:05:00,DRY,5.65,16.75,30.0,777.00,1082.9
2020-06-29,11:10:00,DRY,4.80,16.57,28.7,777.00,1094.9
2020-06-29,11:15:00,DRY,4.70,16.75,28.5,777.00,1105.2
2020-06-29,11:20:00,DRY,3.97,17.10,28.7,777.00,1115.5
2020-06-29,11:25:00,DRY,5.80,16.80,31.0,777.00,1122.9
2020-06-29,11:30:00,DRY,4.43,16.80,30.0,777.00,1133.0
2020-06-29,11:35:00,DRY,3.30,16.85,33.0,777.00,1141.7
2020-06-29,11:40:00,DRY,4.87,16.77,30.0,777.00,1148.1
2020-06-29,11:45:00,DRY,3.05,16.95,29.0,777.00,1155.2
2020-06-29,11:50:00,DRY,3.77,16.97,30.0,777.00,1164.5
2020-06-29,11:55:00,DRY,3.80,16.80,31.5,777.00,1172.7
2020-06-29,12:00:00,DRY,4.47,17.27,31.7,777.00,1176.7
2020-06-29,12:05:00,DRY,5.00,17.25,32.0,777.00,1184.6
2020-06-29,12:10:00,DRY,4.80,16.97,31.3,777.00,1187.8
2020-06-29,12:15:00,DRY,2.80,17.10,31.0,777.00,1194.3
2020-06-29,12:20:00,DRY,4.67,17.30,32.7,777.00,1196.8
2020-06-29,12:25:00,DRY,2.15,17.30,32.0,777.00,1201.8
2020-06-29,12:30:00,DRY,4.47,16.83,34.0,777.00,1202.8
2020-06-29,12:35:00,DRY,4.80,16.60,32.0,777.00,1204.8
2020-06-29,12:40:00,DRY,4.97,16.80,30.0,777.00,1207.9
2020-06-29,12:45:00,DRY,3.90,17.15,30.0,777.00,1212.5
2020-06-29,12:50:00,DRY,4.03,17.77,32.0,777.00,1211.6
2020-06-29,12:55:00,DRY,4.00,17.60,32.0,777.00,1211.7
2020-06-29,13:00:00,DRY,3.77,17.70,33.0,777.00,1213.1
2020-06-29,13:05:00,DRY,5.25,17.50,35.0,777.00,1216.4
2020-06-29,13:10:00,DRY,4.10,17.43,37.3,777.00,1213.4
2020-06-29,13:15:00,DRY,2.70,17.50,36.5,777.00,1213.3
2020-06-29,13:20:00,DRY,3.47,17.43,34.0,777.00,1213.7
2020-06-29,13:25:00,DRY,4.30,17.55,31.0,777.00,1213.3
2020-06-29,13:30:00,DRY,3.40,17.20,28.0,776.00,1215.0
2020-06-29,13:35:00,DRY,4.40,17.30,30.0,776.00,1214.3
2020-06-29,13:40:00,DRY,4.93,17.43,33.3,776.00,1213.8
2020-06-29,13:45:00,DRY,5.20,16.95,34.0,776.00,1211.7
2020-06-29,13:50:00,DRY,4.80,16.90,32.0,776.00,1208.8
2020-06-29,13:55:00,DRY,5.75,17.30,33.5,776.00,1207.0
2020-06-29,14:00:00,DRY,3.83,17.43,31.7,776.00,1201.8
2020-06-29,14:05:00,DRY,3.40,17.70,31.0,776.00,1203.7
2020-06-29,14:10:00,DRY,5.50,17.07,30.3,776.00,1196.3
2020-06-29,14:15:00,DRY,5.00,17.10,33.0,776.00,1192.6
2020-06-29,14:20:00,DRY,5.17,17.30,29.7,776.00,1186.1
2020-06-29,14:25:00,DRY,5.05,16.90,31.0,776.00,1179.2
2020-06-29,14:30:00,DRY,4.17,17.13,30.7,776.00,1174.8
2020-06-29,14:35:00,DRY,5.40,16.95,33.0,776.00,1167.2
2020-06-29,14:40:00,DRY,5.03,17.00,32.0,776.00,1160.2
2020-06-29,14:45:00,DRY,4.90,16.85,34.0,776.00,1151.3
2020-06-29,14:50:00,DRY,4.37,17.47,35.3,776.00,1142.5
2020-06-29,14:55:00,DRY,4.65,17.35,35.0,776.00,1134.5
2020-06-29,15:00:00,DRY,4.97,17.13,30.0,776.00,1127.3
2020-06-29,15:05:00,DRY,5.00,17.45,30.5,776.00,1114.7
2020-06-29,15:10:00,DRY,3.90,17.50,30.3,776.00,1105.1
2020-06-29,15:15:00,DRY,5.10,17.50,30.5,776.00,1093.0
2020-06-29,15:20:00,DRY,4.90,17.10,33.0,776.00,1082.1
2020-06-29,15:25:00,DRY,4.35,17.75,30.5,776.00,1071.5
2020-06-29,15:30:00,DRY,3.53,17.00,32.7,776.00,1059.2
2020-06-29,15:35:00,DRY,4.60,17.30,31.0,776.00,1046.2
2020-06-29,15:40:00,DRY,5.70,17.07,28.7,776.00,1034.1
2020-06-29,15:45:00,DRY,3.70,16.85,30.0,776.00,1020.5
2020-06-29,15:50:00,DRY,4.70,16.93,31.3,776.00,1006.9
2020-06-29,15:55:00,DRY,4.75,17.20,30.5,776.00,990.8
2020-06-29,16:00:00,DRY,3.47,17.23,31.0,776.00,976.0
2020-06-29,16:05:00,DRY,5.40,16.95,30.5,776.00,962.3
2020-06-29,16:10:00,DRY,5.33,16.83,30.7,776.00,946.6
2020-06-29,16:15:00,DRY,2.35,16.65,30.5,776.00,932.0
2020-06-29,16:20:00,DRY,3.80,16.83,30.0,776.00,917.0
2020-06-29,16:25:00,DRY,4.15,16.75,29.0,776.00,900.5
2020-06-29,16:30:00,DRY,7.10,16.80,30.0,775.67,883.0
2020-06-29,16:35:00,DRY,5.20,16.65,30.5,776.00,865.2
2020-06-29,16:40:00,DRY,3.13,16.83,30.3,776.00,850.1
2020-06-29,16:45:00,DRY,3.80,16.70,31.0,776.00,830.7
2020-06-29,16:50:00,DRY,5.43,16.77,30.7,775.33,814.5
2020-06-29,16:55:00,DRY,3.90,16.70,31.0,776.00,795.4
2020-06-29,17:00:00,DRY,3.77,17.10,30.7,775.33,777.4
2020-06-29,17:05:00,DRY,5.10,16.60,31.5,775.00,759.2
2020-06-29,17:10:00,DRY,2.97,16.57,32.0,775.33,740.4
2020-06-29,17:15:00,DRY,3.30,16.45,33.0,775.00,720.7
2020-06-29,17:20:00,DRY,1.83,16.17,34.7,775.00,700.4
2020-06-29,17:25:00,DRY,3.00,16.20,32.0,775.00,682.0